Location: Cuguron
(43.0994°N, 0.5363°E)
Time: 13:35:16
(UTC+00:00)

CZ-4B R/B - Pass Details

Date: 15 May 2026
Orbit: 442 x 557 km, 97.8° (Epoch: 11 June)

Event Time Altitude Azimuth Distance (km) Brightness Sun altitude
Exits shadow 20:50:54 26° 102° (ESE) 921 3.5 -15.0°
Maximum altitude 20:51:50 31° 71° (ENE) 824 3.5 -15.1°
Drops below altitude 10° 20:54:56 10° 7° (N) 1,620 5.8 -15.5°
Sets 20:57:09 0° 357° (N) 2,519 7.0 -15.8°
